Location: Lane
(33.5226°N, 79.8788°W)
Time: 02:59:09
(UTC+00:00)

Tiros 1 despin weight - Pass Details

Date: 04 October 2022
Orbit: 590 x 637 km, 48.2° (Epoch: 30 November)

Event Time Altitude Azimuth Distance (km) Brightness Sun altitude
Rises 21:56:43 0° 281° (WNW) 2,841 ? 12.1°
Reaches altitude 10° 21:59:43 10° 302° (WNW) 1,949 ? 11.5°
Maximum altitude 22:02:39 17° 343° (NNW) 1,556 ? 10.9°
Drops below altitude 10° 22:05:38 10° 25° (NNE) 1,973 ? 10.3°
Sets 22:08:41 0° 45° (NE) 2,891 ? 9.7°
